Wind_Gust
10 10 9 10 9 10 9 9 8 8 7 8 7 7 8 8 7 9 7 8 8 9 9 10 9 9 9 9 9 8 8 9 9 11 14 15 14 16 14 13 12 14 14 15 14 14 13 13 14 14 13 13 13 13 14 14 15 13 14 16 15 17 18 19 19 18 18 17 18 19 19 20 19 19 18 17 17 17 17 18 17 17 18 18 19
9 9 10 10 10 9 9 9 10 8 7 7 8 8 6 7 9 9 9 8 8 9 9 9 11 9 9 9 9 10 9 11 10 14 15 15 14 16 16 14 15 16 15 15 15 14 14 14 15 14 14 15 14 14 14 14 14 15 13 14 15 16 17 17 18 18 18 18 19 19 20 20 20 19 18 18 18 17 17 17 18 18 18 19 20
11 10 10 10 10 10 11 10 9 10 8 7 7 7 7 7 7 8 8 9 9 9 9 8 7 8 9 9 8 8 9 9 10 10 13 12 13 12 17 17 16 16 15 15 15 15 14 14 14 15 15 15 15 15 15 16 16 14 12 9 11 14 16 16 17 18 19 19 19 19 20 20 19 19 18 18 18 17 17 17 17 18 18 19 20
12 11 11 11 11 11 11 11 11 10 9 8 7 7 8 8 8 7 7 9 8 8 8 9 9 9 10 10 8 8 8 8 12 10 10 12 12 12 14 18 17 17 17 16 14 15 15 15 14 14 15 15 15 16 16 16 16 14 13 12 10 12 14 15 16 17 19 18 19 19 19 19 19 18 18 19 19 17 16 16 16 17 18 19 20
11 11 11 12 11 11 11 11 12 12 10 10 10 8 7 7 8 8 8 8 8 8 11 8 9 10 11 10 8 9 9 8 8 10 10 11 12 12 12 14 16 16 18 17 17 16 16 16 15 15 14 15 15 15 16 17 17 16 17 17 16 14 15 14 15 16 17 18 18 18 18 18 18 18 18 18 18 17 17 16 16 17 19 19 19
11 11 12 13 12 12 12 12 13 12 10 10 9 8 9 7 8 8 7 9 8 8 8 9 10 9 9 12 10 10 9 11 8 8 8 10 11 10 11 11 12 14 17 16 17 16 18 18 17 16 15 15 15 16 17 17 18 19 18 18 18 16 16 15 16 16 17 19 18 18 17 17 17 16 16 16 17 16 16 16 16 17 17 18 18
12 11 11 12 13 13 12 13 13 11 11 11 9 8 8 8 9 12 7 8 10 9 10 10 11 12 11 10 11 12 10 10 9 10 9 9 10 9 9 10 10 11 22 19 11 15 16 16 15 15 15 16 16 17 18 18 19 20 20 20 19 17 15 14 15 16 17 17 17 17 18 19 17 16 15 17 17 17 17 17 16 16 17 17 18
11 11 11 12 12 13 13 13 12 11 11 11 10 10 9 9 8 10 11 11 11 9 9 10 9 11 11 11 11 11 11 10 10 10 11 9 10 10 9 16 14 15 13 16 14 18 17 14 14 14 14 14 15 16 17 18 18 18 19 19 18 18 17 15 13 14 16 15 16 16 17 17 17 17 18 18 18 18 18 16 16 16 19 18 17
12 12 12 12 13 13 13 13 11 11 11 10 10 11 10 10 9 10 11 13 14 13 9 9 8 10 12 12 13 12 12 11 11 11 10 11 11 13 15 15 14 9 13 14 14 15 16 15 14 15 15 15 15 15 14 13 14 15 15 15 14 14 14 13 13 12 13 15 16 16 15 14 14 15 15 16 16 16 18 18 15 16 17 17 16
14 13 13 13 13 13 13 13 12 12 11 10 10 9 9 10 9 9 11 12 11 12 11 10 10 10 12 13 13 14 16 15 13 11 12 13 13 13 14 15 16 16 15 14 13 13 13 14 15 16 17 15 15 15 14 16 17 16 15 15 15 15 15 12 10 9 10 12 12 11 11 11 13 13 13 14 15 15 15 16 16 17 16 15 13
15 14 14 14 14 14 14 13 12 12 12 12 12 11 11 10 11 8 8 10 10 10 11 10 10 11 13 14 13 16 16 17 16 15 15 14 15 14 15 16 15 15 15 15 15 15 15 15 15 16 18 17 16 17 16 18 18 18 17 16 16 15 15 16 14 11 10 11 10 9 10 12 14 14 15 15 14 16 16 14 16 16 14 14 13
15 15 14 14 14 14 14 13 13 13 13 14 13 13 12 11 10 12 9 10 8 10 9 10 12 12 13 14 15 17 19 18 18 17 16 16 14 15 16 16 17 17 16 16 16 16 16 16 15 16 15 15 17 16 16 19 19 19 20 19 17 16 17 17 16 15 14 12 11 9 9 10 11 11 12 13 15 14 14 15 15 15 15 15 15
16 15 15 13 14 14 14 14 14 14 14 13 13 13 12 11 10 8 10 10 9 10 9 10 10 12 12 13 16 17 19 19 20 19 17 16 16 17 17 17 16 17 18 16 17 18 18 17 16 16 15 15 14 14 15 19 21 21 23 23 22 21 19 18 17 16 17 17 16 15 18 19 19 21 21 21 20 19 18 17 17 17 16 16 16
15 15 14 14 14 14 14 14 14 14 12 13 13 13 13 13 13 11 10 11 11 11 11 12 12 11 10 12 14 15 16 20 20 18 17 17 17 17 17 17 16 16 16 17 17 16 17 17 16 17 16 15 16 16 17 19 20 22 25 25 24 23 24 24 23 23 24 24 25 25 24 23 23 22 22 21 21 20 19 19 17 17 17 18 17
14 14 14 14 13 13 14 14 14 13 13 14 14 14 14 14 13 13 13 8 8 9 11 12 12 8 9 12 15 15 14 16 17 18 18 16 16 16 16 17 17 15 16 16 17 17 17 17 17 17 16 15 16 17 18 16 23 23 25 27 27 27 26 24 25 25 24 24 24 23 23 24 23 22 22 20 19 19 18 18 18 18 18 18 18
15 15 15 14 14 14 14 14 15 15 13 14 15 14 13 14 14 13 13 11 12 11 11 12 12 11 13 13 9 14 16 14 14 15 16 16 16 17 17 18 17 17 16 18 18 18 18 18 17 16 17 17 20 18 19 19 20 21 26 26 26 26 27 28 27 26 26 24 23 23 23 24 25 24 23 21 20 19 19 19 20 20 19 19 19
15 16 16 15 14 14 15 14 15 15 15 15 15 15 13 12 13 13 13 13 12 10 9 10 11 11 12 13 14 16 11 16 14 13 13 16 17 18 18 18 20 19 19 19 19 19 18 19 19 19 18 18 20 22 25 24 22 20 26 26 26 26 27 27 27 26 26 26 25 24 23 26 26 25 23 22 21 20 20 20 20 20 19 19 19
16 16 16 15 15 15 14 15 15 15 15 15 15 14 15 16 15 13 13 12 13 11 12 10 9 10 9 10 12 12 13 13 12 13 13 15 18 19 19 19 18 19 18 19 20 20 19 19 18 19 19 19 21 21 21 23 25 24 23 30 27 28 27 28 28 27 26 26 25 25 26 27 26 24 22 21 21 20 20 20 20 20 20 19 19
15 15 15 15 14 14 14 14 14 15 15 15 16 16 16 16 15 15 15 14 13 14 13 14 9 9 9 9 10 10 11 13 11 17 14 12 14 17 18 17 18 19 20 19 18 20 20 20 19 19 18 18 21 20 21 24 24 24 27 26 26 27 28 28 28 28 27 26 26 26 26 25 25 23 23 21 21 21 21 20 20 20 19 19 20
15 16 15 15 14 14 13 13 13 14 14 15 15 15 15 15 15 15 15 15 14 15 13 13 15 12 10 10 9 10 11 13 13 13 15 17 14 16 16 16 18 19 18 19 19 18 20 19 18 19 17 19 19 20 21 23 22 24 26 27 27 27 28 29 28 28 27 27 27 26 25 24 24 23 23 22 22 21 20 21 20 20 21 21 21
14 14 14 14 13 13 12 13 13 13 13 14 14 14 14 14 15 16 16 16 15 14 14 15 14 14 11 9 10 11 12 15 12 16 13 17 16 17 18 16 20 20 18 18 19 18 18 16 17 16 14 16 18 19 21 23 23 24 22 27 27 27 28 29 28 27 26 26 25 25 24 25 24 24 24 24 25 24 23 22 23 22 23 24 23
11 13 12 14 13 12 12 12 11 12 12 13 13 13 14 14 15 15 15 15 14 15 15 14 13 13 12 11 10 8 9 9 9 11 13 18 20 16 16 17 21 18 18 18 17 17 18 17 17 17 17 18 18 20 22 25 25 24 26 26 27 27 28 27 27 25 25 24 24 25 26 26 26 26 26 26 26 25 24 23 25 24 25 25 25
9 10 10 12 11 11 11 11 11 11 11 12 12 14 14 13 14 13 15 15 15 14 13 13 13 13 12 12 12 13 13 11 10 9 11 16 20 17 14 17 23 21 15 14 16 17 19 18 18 18 18 19 19 21 21 23 19 24 29 29 27 27 28 28 27 26 26 25 25 25 26 26 26 26 26 26 26 26 25 25 26 26 25 25 25
8 9 10 10 10 9 9 9 10 10 11 10 12 12 12 12 13 14 14 14 14 14 12 13 12 12 12 12 12 11 10 11 11 10 12 16 19 21 17 20 20 20 15 15 17 18 20 21 20 19 19 20 21 21 21 22 24 25 23 28 27 28 28 27 28 27 27 27 26 26 26 26 26 26 26 27 27 27 26 26 26 25 25 25 25
9 9 9 9 9 9 11 11 11 10 10 10 11 11 12 11 12 12 12 13 13 13 13 12 12 13 12 11 12 12 11 10 11 12 10 13 15 21 16 16 23 22 14 11 17 18 20 19 19 20 21 21 20 21 22 23 24 22 19 22 29 27 29 29 28 28 28 28 28 28 27 27 27 27 27 27 28 27 27 26 25 25 25 25 26
8 9 9 8 8 8 8 9 10 11 11 11 11 11 11 12 11 12 11 11 11 10 11 10 10 10 10 11 12 12 11 11 12 16 16 16 17 17 18 18 19 19 15 14 14 18 19 19 17 18 19 20 20 20 19 20 20 21 23 23 28 27 28 29 30 29 29 29 29 29 29 28 29 29 29 29 29 29 28 27 27 27 27 27 27
9 9 8 7 7 8 9 10 11 10 10 10 10 11 12 12 11 11 11 11 11 11 10 10 11 11 10 11 11 11 12 11 10 11 13 13 16 20 21 24 17 17 16 17 19 19 18 17 16 18 19 18 18 18 20 21 19 23 20 24 26 28 26 29 29 30 30 30 29 29 29 29 29 30 30 30 30 29 29 29 28 28 28 28 28
8 7 7 7 8 8 9 10 10 9 9 10 10 12 12 12 12 11 12 11 11 11 10 10 11 10 10 10 9 11 11 12 10 9 10 12 15 16 18 18 20 20 18 17 15 17 13 17 16 16 17 18 18 18 15 18 19 20 19 22 23 23 26 26 28 29 30 30 30 29 28 28 30 31 30 29 29 30 30 31 31 30 30 30 30
7 7 7 8 7 8 9 9 8 8 9 10 10 11 11 11 11 11 12 11 11 11 11 11 10 9 9 10 9 9 10 10 10 9 10 13 14 14 14 12 13 20 19 17 15 16 13 9 13 14 15 17 16 16 18 19 17 18 20 22 24 24 23 22 24 28 29 30 30 30 30 28 28 29 29 30 31 31 31 32 32 32 32 31 31
8 7 7 8 8 8 9 9 8 8 8 9 10 11 11 11 10 10 11 10 10 11 11 11 11 9 9 9 9 10 10 10 11 10 9 11 13 13 12 15 16 14 16 20 17 13 13 11 12 16 14 14 15 16 18 19 16 18 21 22 22 24 21 22 22 25 25 24 25 27 29 29 29 29 30 31 32 32 32 31 32 32 32 32 31
9 8 8 9 9 9 9 9 8 9 8 9 9 10 11 10 9 10 10 10 11 11 11 11 11 10 11 10 9 10 9 9 10 10 9 10 13 11 12 11 11 9 16 18 22 14 12 15 14 14 15 14 16 16 17 17 16 17 19 19 20 19 20 25 23 22 22 22 24 25 26 27 28 29 30 30 31 32 32 31 32 32 31 31 31
9 8 8 10 10 10 9 9 9 8 9 9 10 9 9 10 10 10 10 10 11 11 11 11 10 10 10 11 11 10 10 9 9 10 9 8 9 11 12 12 11 10 11 13 17 20 14 15 15 16 15 15 14 17 17 17 16 13 17 18 17 12 20 25 21 21 20 20 21 21 23 24 25 26 28 28 29 31 31 31 31 30 30 31 31
10 10 10 11 11 10 10 10 9 9 9 9 9 8 9 10 10 10 10 11 11 10 10 10 10 10 11 11 11 11 11 10 11 9 9 9 9 10 10 11 11 11 12 15 21 22 17 15 15 17 16 14 15 15 16 16 15 17 12 16 16 16 17 21 24 19 18 19 19 20 20 20 22 24 27 28 27 27 29 28 28 29 31 31 31
11 11 11 11 11 12 10 11 10 10 9 10 8 8 9 10 10 9 10 10 10 10 9 11 11 10 10 11 12 11 11 12 11 11 10 8 7 10 11 10 12 13 12 17 19 22 22 17 16 16 16 12 16 12 15 15 15 14 15 15 16 17 18 18 21 23 18 18 19 20 19 20 20 21 25 27 25 22 24 24 25 27 29 31 30
12 12 11 12 14 13 12 11 10 10 10 10 9 9 9 9 10 9 9 10 9 9 10 10 11 10 10 10 11 10 9 10 10 10 9 9 8 10 11 11 13 12 11 14 20 20 21 19 17 17 15 14 13 16 14 13 13 13 14 15 15 16 17 17 19 21 15 17 18 19 19 20 20 20 21 24 24 24 24 24 24 24 25 27 28
14 12 11 14 14 13 12 12 12 11 11 10 10 9 10 10 10 10 9 9 9 9 9 10 10 10 10 10 10 9 9 10 11 10 9 10 10 11 12 12 13 13 12 12 13 19 20 21 18 16 16 15 15 14 14 13 13 13 14 14 14 16 16 17 17 18 16 16 17 18 19 20 20 20 20 20 23 24 24 24 24 24 24 24 25
14 13 13 14 14 15 13 14 13 11 11 11 11 11 10 9 10 9 10 10 9 10 10 10 9 10 11 10 11 10 9 10 10 10 11 11 11 12 13 14 15 14 12 12 13 16 19 19 18 15 15 14 15 14 14 15 14 14 12 13 13 14 15 15 15 16 12 14 15 16 17 19 20 20 20 19 19 22 24 24 24 24 24 24 24
15 14 14 14 16 16 15 14 13 13 11 11 11 11 10 10 10 10 10 10 11 11 11 10 11 10 10 11 11 10 10 10 11 11 11 11 11 12 12 13 15 13 13 13 13 14 15 17 17 18 14 16 15 14 12 12 13 14 14 13 12 12 12 13 16 14 15 17 16 17 13 15 17 19 20 19 20 20 22 24 24 24 25 24 25
17 16 16 16 15 16 15 14 13 13 12 12 11 11 11 11 11 11 11 11 11 10 10 11 11 10 11 11 11 11 11 11 10 11 11 10 11 12 12 12 12 13 14 13 14 15 15 16 16 15 16 14 13 14 15 11 10 10 12 13 12 11 12 12 14 14 12 16 14 14 17 17 18 19 18 20 20 23 19 24 26 26 26 26 25
18 17 16 16 15 15 14 14 14 13 12 12 12 11 11 11 11 11 11 11 11 11 11 11 11 11 11 11 12 12 12 13 13 11 10 10 10 12 11 11 12 13 14 14 14 15 15 14 15 15 14 15 13 11 13 12 13 11 10 9 11 11 12 13 12 12 13 14 15 17 14 15 15 18 16 17 20 21 24 19 27 28 28 27 25
17 17 16 16 16 17 16 15 15 14 13 11 11 11 12 12 12 12 11 12 11 11 12 12 11 11 12 13 14 15 16 14 15 14 13 13 12 12 10 10 11 13 13 12 13 13 13 14 14 13 14 15 14 15 15 14 12 9 11 10 9 10 11 14 14 13 13 12 14 17 19 16 17 18 20 22 27 22 24 22 20 26 29 26 26
18 16 15 15 16 17 17 17 15 14 13 11 11 9 8 13 12 12 12 11 11 11 11 12 12 12 13 15 17 16 15 15 15 13 13 14 15 17 14 10 11 12 12 12 12 12 13 14 14 15 15 14 14 13 13 10 9 9 10 12 13 12 12 15 14 14 11 11 14 18 17 16 15 18 19 22 25 26 25 27 31 28 25 26 26
18 17 16 16 16 16 17 16 16 14 14 13 11 10 11 12 13 12 12 12 11 11 11 11 12 13 13 14 14 14 14 13 18 15 14 14 14 14 15 14 14 16 13 12 10 10 12 12 13 13 13 14 13 12 11 12 10 11 11 11 12 15 15 15 14 12 11 10 12 16 17 16 15 18 19 21 23 25 25 27 22 24 25 26 26
19 17 17 17 16 15 15 16 16 15 14 12 14 12 12 12 10 14 12 12 11 11 11 11 12 12 12 12 11 11 12 13 15 17 17 16 15 15 15 14 13 14 12 14 13 11 10 13 13 12 12 13 14 13 13 12 12 11 10 11 12 12 12 12 12 12 13 10 11 16 16 14 13 16 17 20 21 22 26 22 21 23 24 25 26
19 19 19 18 17 16 16 16 16 16 14 13 14 15 14 12 12 12 14 12 12 11 12 12 11 11 11 11 11 12 16 14 13 14 16 18 16 18 17 17 17 16 12 12 11 16 9 11 12 12 11 12 14 13 11 11 10 13 13 12 11 11 10 13 13 14 11 8 11 16 16 14 12 14 17 16 18 20 23 18 21 22 23 24 25
21 20 19 19 17 18 18 17 17 16 14 15 15 16 15 14 13 11 14 13 12 13 13 12 11 11 10 10 12 12 12 10 11 11 13 14 14 15 15 16 16 16 13 13 13 12 11 11 10 12 11 8 11 12 12 10 13 14 15 13 12 12 11 12 11 12 11 9 12 13 16 13 12 13 16 15 14 18 23 20 19 20 21 24 24
22 22 21 20 19 18 18 18 17 17 16 18 16 16 16 15 13 11 14 13 13 13 13 12 11 11 10 10 10 12 11 10 11 10 13 13 14 16 17 17 17 16 16 16 15 14 13 11 12 12 12 10 10 11 11 10 9 7 8 10 11 12 14 13 12 10 10 9 8 13 13 12 9 13 14 13 13 16 17 17 19 19 21 22 23
19 19 19 19 19 19 19 19 17 19 18 20 17 16 16 15 13 15 15 15 14 14 14 13 12 12 11 11 11 11 11 13 10 10 10 14 16 17 18 17 17 17 18 12 11 14 18 16 15 15 14 15 11 14 14 12 10 11 13 13 12 14 16 14 13 12 10 12 9 11 13 13 11 14 13 13 12 15 16 17 16 18 20 21 22
21 21 20 21 21 21 21 20 19 19 18 18 18 17 16 17 13 17 15 16 15 15 14 14 13 13 12 12 11 12 12 13 9 9 9 11 16 17 17 16 15 16 17 15 11 9 11 12 11 10 10 9 9 10 10 12 14 12 15 15 14 14 14 13 12 12 11 11 9 8 13 14 10 9 14 14 14 15 16 17 16 14 16 20 21
21 21 21 21 20 20 21 21 22 20 18 19 20 18 18 19 16 19 17 16 15 15 15 14 13 14 12 9 8 12 12 14 8 9 9 13 15 16 16 17 16 16 15 13 14 14 8 10 11 10 10 9 10 9 9 9 9 10 11 12 13 12 11 11 13 12 11 10 12 7 9 13 10 8 10 11 14 16 15 16 17 16 14 13 18
21 19 19 20 19 19 19 20 14 20 18 19 21 20 20 21 20 19 19 18 17 16 17 16 14 14 15 12 10 12 10 14 10 8 8 12 14 13 14 14 15 15 14 12 13 13 13 13 14 14 15 13 14 13 13 9 6 8 9 10 11 11 11 10 13 14 13 13 15 10 12 12 10 11 11 13 15 16 15 14 16 17 18 17 19
Wind_Speed
3 3 2 2 1 1 2 0 1 1 1 1 1 1 2 1 1 2 1 1 2 2 2 2 2 3 2 1 2 1 2 3 3 4 3 2 4 5 9 9 10 11 11 11 11 10 10 9 11 11 11 9 8 10 10 10 11 10 11 13 13 13 15 15 15 15 14 14 14 15 15 16 15 15 14 14 14 14 14 14 14 14 14 15 15
2 2 2 2 2 2 1 2 2 1 1 1 0 2 1 1 2 2 0 1 1 2 2 2 3 2 1 2 2 3 2 4 3 5 5 4 4 4 10 10 11 12 12 12 11 10 10 10 10 10 10 10 9 9 10 11 11 11 10 10 12 13 14 14 14 14 15 15 15 15 15 16 16 15 15 15 14 14 14 14 14 14 15 15 16
4 4 3 3 2 2 2 3 1 1 2 1 1 1 1 1 1 1 1 2 1 1 2 1 1 1 2 1 1 2 2 2 3 2 3 3 4 3 7 11 11 11 10 9 9 9 8 8 9 9 10 10 10 10 11 12 13 12 9 7 6 9 12 13 13 14 14 15 15 15 15 15 15 15 15 15 15 14 14 14 14 15 15 15 16
5 4 3 3 3 4 3 3 3 2 2 2 2 2 2 1 1 1 1 3 2 1 1 2 2 1 2 2 1 1 1 2 4 1 2 0 1 2 4 7 10 9 8 8 6 7 7 6 7 8 9 10 10 12 12 12 12 12 10 9 8 7 8 10 12 13 14 15 14 14 14 15 15 15 15 15 15 14 13 13 13 14 14 15 16
4 5 4 4 3 3 3 2 2 3 2 3 3 2 2 2 1 2 2 2 2 2 3 2 2 2 3 1 1 1 1 1 1 2 1 2 1 1 2 3 5 11 10 8 6 5 5 5 6 7 9 10 10 11 12 12 12 12 12 13 13 12 10 10 11 11 13 13 14 13 14 14 14 14 14 14 15 14 14 13 13 13 15 16 16
4 4 4 4 4 3 3 3 3 3 2 2 3 2 2 1 2 2 1 2 2 2 2 2 2 1 1 2 2 2 2 3 1 0 0 2 2 3 2 2 2 3 7 11 5 2 4 7 8 9 9 10 11 11 10 11 12 13 13 13 14 13 11 11 12 12 13 14 14 14 13 14 14 13 13 13 13 13 12 13 12 12 13 13 15
5 4 4 4 3 4 4 3 3 3 3 2 2 2 1 2 2 4 1 2 3 1 2 1 2 2 2 2 2 3 3 2 1 2 2 1 3 1 1 2 0 4 11 9 4 9 9 9 8 8 8 7 6 6 7 9 10 11 12 12 11 11 10 10 10 12 13 13 13 14 14 16 14 12 11 14 13 13 12 14 13 13 13 13 15
5 4 4 4 4 4 4 4 3 3 3 3 2 2 2 3 2 3 4 4 4 2 1 1 2 2 2 2 2 3 2 2 2 2 1 2 2 1 2 8 7 7 2 5 4 9 10 11 11 11 11 10 10 9 9 9 10 11 11 11 11 11 10 9 10 10 10 12 13 13 13 13 13 13 13 14 14 14 13 13 12 12 11 12 12
5 5 4 4 4 4 4 5 4 3 2 2 2 2 2 2 2 3 4 5 5 5 2 2 1 1 1 3 3 3 3 3 3 2 0 2 1 4 6 3 5 5 4 4 4 6 8 10 10 11 11 11 12 11 10 10 10 12 12 11 11 10 9 8 7 9 9 11 11 12 11 11 7 10 11 10 11 11 10 12 12 11 11 12 10
5 5 4 4 5 5 4 4 4 3 3 2 3 3 3 3 3 3 3 4 4 4 4 2 2 1 1 2 3 3 3 3 3 3 4 3 4 5 4 4 5 5 5 5 6 5 5 9 10 11 11 10 10 10 11 13 13 12 11 11 11 11 10 9 9 7 8 9 7 7 8 4 9 8 9 10 11 10 8 10 10 7 5 6 7
6 5 5 5 4 5 4 5 4 3 3 3 2 4 4 3 4 1 1 3 3 3 4 3 2 1 0 2 1 3 3 3 3 4 4 4 4 4 4 5 5 7 7 6 5 6 6 5 4 5 7 8 7 9 12 14 14 14 12 12 12 12 12 13 12 10 9 7 4 4 5 4 6 8 8 9 7 6 6 5 7 8 10 10 11
6 5 5 5 5 5 5 5 4 4 4 4 4 3 4 3 3 4 3 3 1 3 3 2 1 2 1 1 2 3 5 4 4 5 5 4 5 5 5 6 6 6 7 6 6 6 6 5 4 5 4 5 5 5 10 15 15 16 15 15 13 12 13 13 13 12 12 10 9 7 7 7 7 8 7 7 10 10 11 11 12 12 12 12 12
6 5 5 4 4 5 5 5 5 5 4 5 5 5 4 4 3 2 3 2 1 1 2 3 1 2 0 1 2 4 5 5 6 6 6 6 6 7 6 6 6 6 7 7 8 7 7 7 7 6 5 4 3 8 8 16 17 17 18 18 17 16 15 14 14 13 14 14 13 13 15 16 16 17 17 17 16 15 14 13 13 13 12 12 13
5 5 5 5 5 4 5 5 5 5 5 5 5 5 5 5 4 3 2 2 2 3 3 4 4 3 3 2 3 4 5 7 7 7 7 6 5 6 5 6 7 7 7 7 7 7 8 7 6 6 6 5 6 7 5 7 13 18 19 20 19 18 18 19 19 19 19 20 20 20 19 18 18 17 18 17 16 15 15 14 13 13 14 14 14
5 5 5 5 5 5 5 4 5 5 4 4 4 5 5 5 5 5 4 2 1 1 3 4 4 2 3 4 5 5 3 5 6 7 6 5 5 7 7 7 8 7 6 6 7 7 7 6 7 7 6 6 6 3 7 9 12 18 20 21 21 21 20 18 19 19 19 19 19 18 17 16 16 17 17 16 15 14 13 13 14 14 14 14 15
5 5 5 5 5 5 4 5 5 5 4 5 5 5 5 5 5 4 4 3 3 3 2 3 3 3 4 4 2 4 5 4 5 4 7 8 7 7 6 7 7 7 7 8 8 8 8 8 8 8 8 8 9 8 7 8 12 16 20 20 20 20 21 22 21 20 20 19 18 17 17 17 17 16 15 15 16 15 14 14 15 15 15 15 15
5 6 5 6 5 5 5 5 5 6 5 5 5 5 5 5 5 4 5 4 3 3 2 3 3 3 3 4 4 5 2 6 6 5 4 7 8 8 8 7 8 7 7 8 8 8 7 8 8 8 8 9 10 11 11 12 11 11 15 20 20 19 19 19 19 18 19 18 18 18 18 17 17 17 17 16 16 15 15 15 15 15 15 15 15
6 6 6 5 5 5 5 4 5 5 5 5 5 4 6 6 6 5 4 5 4 3 2 2 2 3 3 2 2 3 4 2 2 3 5 6 7 8 8 8 7 7 7 8 8 7 7 7 8 9 9 9 10 10 10 11 12 11 11 14 21 21 20 20 20 19 18 19 18 17 17 17 18 18 16 15 15 15 15 16 16 16 15 15 15
6 6 5 6 5 5 5 5 4 4 4 5 5 6 5 6 6 5 5 4 4 3 3 2 1 2 2 2 2 3 1 3 1 7 5 4 6 7 7 8 8 7 7 8 7 7 7 7 8 9 9 9 9 9 9 10 14 15 20 21 20 20 19 19 19 19 19 18 18 17 18 17 17 17 16 16 16 17 16 16 16 16 15 15 16
6 6 6 6 5 4 4 4 4 4 3 4 5 5 5 6 6 6 5 5 5 4 4 3 3 2 2 3 2 1 2 1 4 4 6 7 5 6 6 7 8 8 7 7 8 8 8 7 8 8 7 8 8 8 9 10 11 13 13 21 20 20 20 20 20 19 18 18 17 17 17 18 18 17 17 17 16 15 16 17 16 16 17 17 17
5 5 6 5 5 4 4 4 4 4 4 4 4 5 6 6 7 6 6 5 5 5 4 4 4 4 3 2 2 2 2 2 2 3 2 6 7 7 8 7 8 8 7 7 8 7 7 7 6 6 6 7 8 9 9 10 10 12 15 19 20 20 19 19 19 18 18 18 18 18 18 19 18 19 18 18 20 19 18 17 18 17 18 19 18
4 5 5 5 5 5 4 4 4 4 4 5 5 5 5 6 6 6 7 6 5 5 5 4 4 4 3 3 3 2 1 1 0 1 4 10 7 7 7 7 7 7 6 6 8 7 8 7 7 7 7 8 8 9 10 11 10 10 15 20 19 19 18 18 18 17 18 19 19 19 19 19 19 20 20 20 19 19 19 18 20 19 19 19 19
3 3 4 4 4 4 4 4 4 4 4 4 4 5 5 5 5 6 6 7 6 5 4 5 4 4 4 3 3 3 3 4 2 2 4 7 8 7 5 6 9 8 5 5 7 8 8 8 8 8 8 8 8 9 10 10 12 14 22 22 21 18 18 18 17 18 19 19 19 19 19 19 20 20 19 19 19 19 19 19 20 19 19 19 19
2 2 3 4 3 3 3 3 3 3 3 3 4 4 4 4 5 5 6 6 6 6 5 5 5 3 4 4 3 3 2 3 4 3 4 5 6 9 7 8 8 8 5 7 8 8 8 8 8 8 8 8 9 9 9 10 12 16 14 21 21 21 18 17 17 17 18 18 18 18 19 20 19 19 19 19 19 19 19 19 19 19 19 19 19
2 2 3 2 1 2 2 2 2 3 3 2 3 4 4 3 4 5 5 6 5 5 4 5 4 4 3 3 3 3 3 3 3 3 3 4 5 8 6 7 9 8 6 4 6 6 7 7 7 7 8 8 8 8 9 10 10 14 14 17 22 20 21 20 17 17 17 17 19 19 20 20 19 19 19 19 19 19 19 19 19 19 19 19 19
2 2 2 1 1 2 1 2 2 2 2 3 3 3 4 3 3 4 4 4 4 3 3 3 3 4 3 3 3 3 3 4 3 2 1 5 4 7 8 7 9 8 5 4 5 6 7 6 7 7 7 8 8 8 8 9 9 13 15 13 18 20 20 20 19 19 17 16 18 19 19 19 19 19 19 19 19 20 19 20 20 20 20 20 20
2 2 2 1 1 2 2 2 2 2 2 2 2 1 3 3 3 3 3 3 3 3 3 3 3 4 4 3 3 3 4 3 3 2 1 1 4 9 8 10 6 7 6 5 6 7 6 6 6 7 7 7 7 8 9 10 10 11 9 11 12 20 19 20 19 19 19 17 17 19 19 19 19 19 19 19 19 20 20 20 20 21 21 21 21
2 1 1 0 2 1 2 2 1 2 1 1 2 2 3 3 2 2 3 2 3 3 2 2 2 2 3 3 2 4 4 4 3 1 1 1 1 5 8 7 8 8 6 5 5 6 5 6 6 6 7 7 7 7 8 8 8 10 11 10 10 12 18 19 19 20 20 20 19 19 19 19 19 20 20 20 20 20 21 21 21 21 21 22 22
1 1 1 1 2 1 2 2 2 1 1 2 2 3 3 2 2 2 3 2 3 3 3 2 2 1 2 2 3 2 3 3 3 1 1 1 2 2 4 4 3 8 7 6 5 5 5 2 4 5 6 7 6 6 7 8 7 8 9 10 11 11 15 18 19 19 19 19 19 19 19 19 20 20 20 21 21 21 21 21 21 22 22 22 22
1 1 1 2 2 2 2 1 1 1 1 1 2 3 2 2 1 2 3 2 2 3 3 3 2 2 2 2 2 2 3 3 3 3 1 2 1 0 3 6 7 6 6 8 7 5 5 4 4 6 5 6 6 6 7 8 5 6 9 10 10 11 17 17 18 18 17 16 17 17 18 19 20 20 21 21 21 21 22 22 22 22 22 22 22
1 1 2 2 3 2 2 2 1 1 1 2 2 2 3 2 1 1 2 2 2 3 3 3 2 2 2 2 2 2 2 2 3 2 2 1 3 3 3 0 3 1 8 7 9 5 5 6 5 5 6 6 6 6 6 6 5 4 7 7 9 14 16 16 17 16 15 15 16 17 18 18 19 20 20 20 21 21 21 21 22 22 22 21 22
2 2 2 3 3 3 2 2 2 1 1 1 2 2 2 2 2 2 2 1 2 2 3 3 2 2 2 2 3 3 2 2 2 3 1 2 1 3 4 4 3 2 3 5 7 8 5 6 6 6 6 6 6 6 7 6 4 2 6 6 6 10 10 11 16 15 14 13 14 14 15 17 18 19 20 20 20 21 21 21 21 20 21 21 21
3 3 3 4 4 3 3 2 1 2 1 1 2 1 1 1 2 2 2 2 1 2 2 3 2 2 2 2 3 3 3 3 3 2 2 1 3 2 3 4 3 3 3 6 8 9 7 5 6 6 7 6 6 5 6 6 6 6 5 6 6 6 7 9 10 14 13 13 12 13 13 15 17 19 20 20 20 20 21 20 20 20 21 21 21
4 4 4 4 4 5 3 3 2 2 1 2 2 1 1 0 1 1 2 2 2 1 1 2 3 2 2 3 3 3 3 3 3 3 2 1 1 3 2 2 2 3 4 5 7 8 9 7 6 6 6 4 5 4 5 5 5 5 6 5 6 7 6 7 9 9 12 12 12 12 13 14 15 17 20 21 19 18 19 19 19 20 20 21 21
5 5 4 5 6 5 5 4 3 2 1 2 2 1 1 1 1 1 1 2 1 0 1 1 2 2 2 2 2 2 2 2 2 2 2 1 1 1 3 3 3 4 4 5 4 7 8 7 6 6 5 4 4 5 5 4 5 4 5 5 5 5 6 7 7 8 8 11 12 12 12 12 13 14 15 18 19 19 19 19 19 19 19 20 20
6 5 4 6 6 5 5 4 4 3 2 2 1 2 2 2 2 2 1 1 0 1 1 2 2 2 2 2 2 2 2 2 3 2 2 2 1 3 3 4 4 5 4 4 4 5 5 8 7 6 6 5 5 5 4 4 4 4 5 5 4 5 5 6 7 7 7 10 12 13 12 12 14 15 14 14 16 18 19 19 19 19 19 19 19
6 5 5 6 6 6 5 5 5 4 3 2 2 2 2 1 2 1 1 2 1 2 2 3 2 2 2 2 3 2 2 2 3 3 4 2 3 3 4 4 5 5 4 3 4 5 5 6 6 5 5 5 5 4 4 4 4 4 4 3 3 4 5 4 5 5 10 10 12 12 11 11 13 13 15 15 13 14 18 19 19 19 19 19 19
7 6 6 6 6 7 6 6 5 4 3 2 2 2 2 2 2 2 2 2 2 3 3 2 3 3 2 3 2 2 3 3 4 4 4 4 3 4 4 4 5 4 3 4 4 5 6 6 6 6 5 5 5 4 4 3 3 4 4 4 3 2 3 3 4 3 3 3 2 5 9 10 13 12 12 14 17 14 15 19 19 19 19 19 19
8 7 7 7 6 7 6 5 5 5 4 3 2 2 2 3 3 3 3 3 3 2 2 3 3 3 3 3 3 3 3 3 3 4 4 4 4 5 4 5 4 4 4 4 4 5 5 6 6 6 6 5 4 4 5 3 2 2 3 3 3 3 3 3 4 4 3 5 6 6 4 7 7 9 11 12 13 18 14 17 19 20 19 19 19
8 8 7 7 7 6 6 6 5 5 4 4 3 2 2 3 3 3 3 3 4 3 3 3 3 3 3 3 3 4 5 5 5 4 3 3 3 4 4 3 4 3 3 4 4 5 5 5 5 6 5 5 4 3 4 3 3 2 1 1 1 2 3 3 4 3 3 5 3 3 6 8 8 11 8 13 13 15 19 15 19 20 20 20 19
7 8 7 7 7 7 7 6 6 5 5 4 3 2 3 3 3 4 3 4 3 3 4 4 3 3 4 5 5 6 7 9 11 9 8 8 3 3 3 3 2 2 3 3 4 4 4 5 5 5 5 5 5 5 5 4 3 1 3 1 1 2 2 3 3 3 4 3 4 5 6 5 6 7 8 9 12 15 16 17 15 18 21 19 19
9 8 7 7 7 8 8 8 7 5 5 3 6 6 7 1 4 3 4 4 3 4 3 4 4 5 5 6 7 10 10 11 11 10 10 11 12 9 5 3 2 2 2 2 3 3 4 4 4 5 5 5 5 5 4 3 2 2 2 2 2 2 1 3 3 3 3 4 4 5 6 5 6 6 7 9 11 13 11 12 13 14 18 19 19
9 8 7 7 7 7 8 8 7 6 5 4 9 5 3 5 2 4 4 4 4 3 3 3 4 5 5 6 6 7 8 9 9 10 10 9 11 11 12 11 10 7 1 2 2 1 3 3 4 4 4 5 5 5 4 4 3 2 2 2 2 2 2 2 3 4 2 2 3 4 5 5 5 7 8 9 10 11 11 11 15 17 18 18 19
10 9 8 8 8 7 7 7 7 6 5 10 11 9 5 5 7 2 4 4 3 3 3 3 4 4 4 4 4 3 4 5 6 7 9 10 9 10 11 11 11 11 9 7 2 2 2 2 3 3 3 4 5 4 4 4 4 3 1 2 2 2 2 0 2 3 4 2 2 3 5 3 3 5 7 8 9 9 10 12 14 15 16 18 18
10 10 10 9 8 8 7 8 8 7 5 11 12 10 8 6 6 6 5 4 4 4 3 3 3 3 4 4 3 4 5 3 4 6 7 7 8 8 9 10 10 10 10 10 8 7 3 1 2 3 3 4 5 5 4 3 2 3 2 3 2 2 0 0 2 4 3 2 1 3 5 4 2 4 5 6 7 8 9 11 13 14 15 16 16
11 10 10 10 9 9 9 8 8 7 6 12 12 11 10 8 8 9 4 4 4 4 4 3 3 3 3 3 4 4 4 3 4 4 4 5 4 4 4 4 5 6 6 6 4 6 7 3 1 3 2 1 3 4 5 3 4 3 3 1 2 2 0 3 4 3 3 1 4 2 3 4 3 4 5 5 5 7 8 9 10 11 13 13 15
11 11 10 10 9 9 9 9 8 8 6 14 13 12 11 10 10 9 4 4 4 4 4 4 3 3 3 2 3 4 4 3 4 4 3 4 4 4 4 5 5 5 6 6 6 3 2 0 2 3 4 2 3 4 4 3 2 1 1 2 1 1 4 2 2 1 2 1 1 5 4 3 1 4 5 4 4 5 7 9 9 8 9 12 12
9 9 9 9 10 10 10 10 8 9 8 16 14 13 12 12 10 6 5 5 5 5 5 4 4 3 3 3 4 4 4 5 5 5 6 1 5 5 5 6 6 7 7 6 7 10 9 7 6 6 5 7 8 7 6 3 2 3 2 1 1 2 3 3 3 3 2 4 1 3 2 4 3 5 5 4 3 5 4 6 8 7 8 10 10
10 10 10 10 10 10 11 10 10 9 8 13 15 14 13 12 10 7 6 6 5 6 5 5 4 4 4 4 4 4 5 5 4 3 3 6 5 5 5 5 5 6 6 5 7 8 9 9 9 9 8 8 8 9 9 10 8 5 2 3 3 3 4 3 3 2 3 3 2 2 1 4 3 2 5 5 4 5 6 5 5 6 5 7 8
10 11 10 10 10 10 11 11 11 10 8 13 16 15 14 14 12 8 7 6 7 6 6 5 5 4 4 6 4 4 4 6 5 2 5 6 4 5 6 6 6 6 5 5 4 5 6 8 8 7 6 7 6 6 7 7 7 7 3 2 3 3 2 2 1 2 3 3 4 1 1 4 1 1 1 3 5 5 5 6 6 6 10 8 8
8 8 9 9 9 9 9 10 11 11 8 11 16 16 15 16 13 9 8 7 7 7 6 6 5 5 6 5 3 7 5 8 7 4 5 7 3 4 5 5 5 5 5 5 4 5 5 5 5 5 5 6 6 4 4 3 3 6 2 3 1 3 2 1 1 2 3 4 6 1 2 4 2 3 2 3 4 5 4 5 6 7 7 7 5
Wind_Direction
18 24 29 22 357 351 292 7 296 70 216 172 211 206 192 239 257 260 201 251 195 201 224 198 218 220 245 236 266 223 223 230 215 152 207 180 213 170 191 190 208 216 217 218 218 216 223 230 223 218 224 230 226 227 231 241 245 247 226 228 231 230 227 227 230 236 237 237 237 237 240 244 248 250 252 252 255 259 261 264 266 268 268 271 272
25 356 8 355 344 325 300 325 347 23 275 217 194 217 218 192 219 243 86 202 251 67 273 233 206 206 213 239 217 238 190 232 222 192 192 202 201 175 186 198 212 214 215 212 216 217 220 226 229 225 229 231 234 236 244 252 256 253 247 237 233 233 231 230 232 234 235 236 236 235 238 241 246 249 252 254 256 259 261 262 265 266 267 268 270
7 353 1 338 357 336 340 321 301 313 299 294 229 265 249 272 268 317 319 323 333 122 255 238 281 216 110 244 242 239 228 252 243 251 204 188 200 184 177 205 214 216 220 224 226 226 232 233 232 238 241 244 245 244 248 253 260 264 263 266 264 247 242 237 234 236 239 239 237 235 236 240 244 248 251 253 256 258 259 261 264 266 269 269 271
9 3 2 3 4 357 354 345 333 317 302 299 242 294 285 306 344 268 325 295 291 267 273 276 280 326 253 128 67 282 228 232 252 187 261 183 259 179 193 193 211 227 229 237 238 243 249 254 257 260 256 256 254 251 254 262 271 279 288 289 275 252 250 248 243 240 244 245 244 237 237 240 243 246 250 253 257 259 261 262 264 267 271 275 277
32 15 4 31 18 359 0 2 355 341 327 319 323 259 259 240 238 288 263 259 263 265 294 310 270 293 304 345 228 241 332 244 258 285 323 243 226 226 244 225 181 195 223 232 232 255 274 298 305 300 303 305 302 299 297 291 287 282 274 268 265 261 252 241 243 248 251 252 250 240 238 242 243 246 251 258 262 263 265 268 275 282 285 284 284
24 23 8 25 27 21 1 10 7 347 331 309 274 282 272 276 250 236 268 261 261 294 269 271 299 279 248 337 313 316 297 280 48 122 296 278 74 273 235 252 244 189 183 193 207 216 326 324 318 315 314 314 316 316 314 314 307 303 299 303 298 292 283 267 245 243 245 249 250 246 241 242 244 246 249 259 264 269 278 284 279 274 278 284 287
33 15 13 14 32 41 9 17 3 344 350 6 310 292 293 291 326 293 294 260 277 214 313 308 297 312 354 318 323 330 311 326 355 306 199 147 245 133 344 254 232 17 27 34 69 53 61 46 42 39 38 27 9 351 331 318 314 306 304 297 293 292 288 279 273 262 253 246 246 245 246 251 252 253 254 259 266 271 272 272 280 275 271 280 286
37 24 23 24 28 37 36 24 350 336 7 354 335 340 6 318 336 310 308 309 279 245 208 317 316 330 332 329 340 335 327 337 5 282 21 266 64 84 13 10 351 48 44 91 78 70 60 67 56 53 44 32 21 8 358 342 332 325 316 314 309 303 293 284 280 275 269 265 259 256 260 267 264 268 271 274 278 283 287 287 285 287 286 287 290
40 32 25 31 39 37 39 25 14 10 346 329 328 327 335 337 318 330 311 295 302 308 290 225 228 265 338 351 358 349 4 14 16 359 2 40 10 56 44 63 65 54 68 70 69 79 86 81 76 60 48 38 25 19 11 359 350 339 332 332 329 317 316 308 281 267 266 265 263 263 266 268 294 289 289 291 290 292 297 301 310 301 285 279 297
46 41 31 33 35 28 34 22 24 25 26 358 2 347 351 322 310 302 322 299 309 317 303 335 331 306 24 19 19 8 27 20 36 21 32 49 41 54 55 50 44 52 59 65 60 64 82 103 94 76 59 41 32 23 19 12 3 353 358 357 357 358 358 352 339 310 284 280 290 274 263 249 262 277 284 296 298 308 329 331 320 314 344 355 5
52 42 33 32 40 40 35 22 25 23 20 24 33 32 14 350 320 321 274 290 326 308 335 325 281 317 28 60 44 57 41 40 42 56 59 52 53 58 70 63 65 62 61 65 68 61 58 41 49 57 70 56 33 23 27 21 15 15 14 19 22 27 29 31 29 26 20 29 15 349 345 322 317 312 320 313 337 4 337 2 16 27 28 20 10
54 49 47 33 33 35 34 29 30 27 30 21 9 29 21 358 350 335 332 276 180 324 329 303 336 322 27 96 66 76 64 54 58 64 78 62 62 57 59 56 59 60 60 60 57 66 57 55 51 60 66 67 51 25 48 36 29 28 29 29 29 30 37 42 39 39 42 38 35 29 13 1 3 12 2 44 50 45 44 37 34 26 19 11 3
51 49 45 47 39 35 33 26 20 31 29 27 20 15 12 354 334 307 315 320 7 335 315 298 260 210 124 125 89 56 71 63 69 70 63 61 54 63 57 61 55 59 62 59 61 57 56 47 44 38 31 18 89 110 77 45 39 37 39 40 41 39 42 45 46 43 43 41 41 49 55 52 54 52 46 43 41 39 37 31 24 18 12 9 5
49 46 43 37 37 38 34 29 21 28 20 23 24 20 13 11 348 331 322 340 352 349 360 306 234 261 231 166 105 81 69 70 74 72 69 69 73 72 67 65 63 65 68 71 68 68 63 57 51 40 30 18 10 24 30 36 50 42 43 41 42 44 48 53 57 59 60 59 57 54 53 51 47 46 47 41 36 33 29 26 20 12 12 11 7
45 53 42 37 39 37 36 30 24 21 23 27 27 26 13 12 9 0 346 323 212 82 7 326 302 286 274 256 189 176 110 89 75 69 70 73 77 81 82 75 73 73 71 67 59 54 57 48 42 34 27 13 15 11 62 58 53 50 47 45 44 44 47 53 56 58 57 57 54 52 52 49 43 41 37 32 27 23 19 17 14 11 8 4 2
40 43 52 42 37 38 46 38 34 25 24 33 29 24 18 11 13 15 360 338 1 33 10 355 331 321 244 249 280 272 197 149 104 74 78 74 67 74 76 84 92 82 71 64 60 56 50 41 43 39 33 23 33 34 33 38 45 57 48 45 44 41 38 40 43 49 49 50 52 50 45 42 39 35 30 26 23 19 16 14 11 5 359 358 356
38 35 43 45 37 35 33 48 39 30 24 34 33 27 24 24 16 12 21 356 358 356 34 348 357 355 317 286 248 226 340 148 141 76 43 81 76 78 71 72 68 70 70 69 67 64 53 51 46 46 35 29 38 42 45 41 35 35 45 43 45 46 47 44 42 42 45 45 43 41 41 38 36 34 28 22 17 14 12 11 10 4 358 353 354
32 39 34 35 38 38 31 33 44 35 29 29 30 27 30 23 23 16 20 18 347 339 14 32 346 12 0 10 354 309 332 15 141 123 64 68 91 77 81 75 73 70 68 71 70 73 67 60 60 55 47 42 47 41 49 50 43 41 39 41 42 43 45 46 42 41 41 38 36 34 31 32 31 29 24 22 18 15 12 12 8 5 359 353 351
34 30 37 31 31 31 32 21 37 38 34 27 29 18 28 27 18 24 20 16 2 6 360 16 14 358 355 23 9 336 325 289 321 109 115 48 40 80 80 70 68 69 68 68 73 75 67 64 61 62 54 52 46 45 42 46 52 53 45 43 43 43 43 45 45 43 41 39 38 34 34 34 31 30 26 23 20 15 12 10 9 7 2 357 355
21 25 18 32 22 24 26 31 19 44 27 37 31 27 22 27 21 20 25 22 19 10 6 5 8 38 13 14 0 15 338 289 280 275 132 133 99 88 88 88 80 66 60 68 70 69 80 73 71 65 57 52 50 49 49 44 43 42 42 40 43 43 43 44 44 44 43 42 39 38 37 35 32 28 26 24 22 17 17 18 15 9 7 6 5
19 21 19 23 20 20 16 27 24 26 17 35 33 32 27 27 27 24 19 24 19 15 9 17 24 27 341 36 333 357 359 14 351 270 205 131 130 131 122 101 85 72 69 59 65 67 67 66 62 63 69 60 50 50 48 47 48 46 37 41 42 43 42 43 44 44 44 43 40 38 37 36 32 30 27 26 26 24 19 18 15 13 14 8 8
22 20 8 17 13 9 12 25 24 26 26 31 24 26 26 29 27 28 23 20 25 17 13 21 29 29 23 3 3 341 296 247 177 241 218 149 138 150 147 132 100 82 70 65 69 69 71 67 66 59 56 54 60 62 60 54 50 47 34 33 42 44 43 43 44 46 45 43 42 41 40 38 36 34 32 30 29 25 21 18 17 16 15 11 9
15 27 13 11 12 10 9 18 30 22 20 26 20 19 15 16 22 13 23 15 17 15 19 22 24 34 28 29 22 14 2 337 346 343 304 109 147 144 145 120 114 110 89 73 80 75 76 70 70 66 67 64 63 66 64 60 54 48 41 32 33 38 43 45 44 44 44 44 46 46 43 40 38 35 32 31 29 27 25 22 19 16 14 13 11
17 16 31 4 13 9 26 30 37 33 24 26 22 19 11 10 12 13 9 11 16 6 18 17 23 29 46 37 34 24 18 340 5 336 33 122 147 143 132 122 115 105 94 83 72 81 78 78 79 80 75 76 72 69 69 67 58 51 51 38 34 32 38 42 47 47 45 44 45 46 44 41 37 33 30 29 29 27 26 25 22 19 17 14 13
45 14 57 31 15 31 23 37 50 50 40 35 60 30 11 6 14 9 9 10 16 3 20 15 10 14 21 39 30 21 26 25 1 353 90 136 149 144 137 144 125 119 113 120 101 82 76 79 77 74 77 75 75 73 74 67 59 52 56 51 36 34 32 32 41 45 47 46 45 44 42 38 36 34 31 29 29 29 27 26 25 23 20 17 14
61 41 27 47 68 61 40 49 42 52 65 51 44 38 2 1 5 10 12 16 18 356 34 16 20 16 10 25 23 30 27 17 22 0 112 154 164 146 151 133 121 116 124 132 128 99 84 80 77 76 76 75 75 74 65 67 71 68 65 59 45 36 34 33 36 34 37 50 48 45 42 38 35 33 34 32 31 31 30 28 26 25 23 21 16
51 46 54 92 100 70 51 67 59 62 60 29 8 29 8 344 4 4 36 3 38 20 50 25 23 20 25 13 18 38 15 20 35 14 122 236 151 152 150 127 125 129 124 104 84 80 92 74 80 87 82 77 71 68 72 75 69 56 62 65 61 41 32 33 33 39 38 41 49 47 44 40 36 35 35 34 33 31 31 29 27 26 24 22 19
74 56 65 135 109 117 97 69 84 74 48 26 6 357 1 356 343 20 40 25 63 39 45 75 47 29 32 2 359 31 10 9 23 16 15 55 21 155 142 142 133 131 127 127 112 97 100 104 88 84 93 89 85 85 91 85 84 92 67 64 59 51 39 35 34 34 35 34 47 48 45 41 38 36 34 33 32 31 30 29 27 26 25 24 21
105 61 188 151 183 147 109 103 107 87 40 32 18 8 354 359 18 31 38 51 60 66 56 50 71 18 51 3 15 18 18 1 32 47 79 347 135 278 59 91 168 139 158 143 126 127 121 87 111 89 79 83 82 76 73 70 64 63 74 72 65 60 45 43 40 41 39 36 42 47 43 41 39 36 34 32 31 30 29 28 27 26 25 25 23
161 123 198 184 164 204 148 134 77 53 36 31 18 13 348 33 21 45 31 26 69 70 51 45 35 43 36 18 16 29 24 2 29 44 119 162 172 135 151 178 147 166 158 148 138 146 133 131 126 113 102 102 106 93 88 87 31 67 77 76 74 73 61 52 46 45 43 38 39 41 40 39 37 34 32 30 29 28 27 26 25 25 24 24 22
200 193 201 194 197 183 187 167 165 122 63 33 356 22 8 24 20 60 43 23 46 64 58 36 30 32 40 55 35 53 19 21 360 43 57 199 157 166 159 252 157 139 154 144 137 139 156 132 114 121 125 116 99 99 90 84 76 60 80 88 89 107 88 61 52 48 45 44 43 39 37 36 33 33 31 30 27 28 27 24 24 24 24 22 22
198 240 237 210 202 204 193 195 180 151 101 31 17 11 27 26 12 31 54 16 46 55 68 53 39 29 65 77 53 36 7 348 38 0 14 114 223 157 166 154 172 177 146 154 131 139 150 131 138 138 123 112 113 108 108 104 102 3 77 76 118 172 78 78 59 49 49 49 47 43 38 34 32 31 34 32 30 28 27 24 22 23 24 23 20
209 226 227 226 206 208 199 204 202 161 158 81 20 357 45 48 31 19 6 13 17 49 59 80 65 43 42 60 68 50 20 9 3 349 356 345 158 222 162 166 163 160 154 133 126 131 133 141 146 135 126 141 131 121 111 111 106 91 76 64 58 59 76 75 75 56 50 51 51 50 46 41 36 35 33 34 32 29 26 23 21 23 24 23 20
218 228 223 220 210 217 214 199 192 165 160 80 23 5 34 117 83 349 346 338 345 66 14 86 84 77 42 41 65 49 14 9 356 353 354 309 222 175 186 171 160 142 128 133 126 135 138 154 144 133 146 163 111 105 99 96 93 86 81 79 63 51 54 74 71 65 52 54 56 57 53 48 44 41 37 35 32 29 27 23 21 22 22 21 19
212 221 219 207 218 210 191 208 191 170 150 89 44 37 44 334 354 25 332 346 326 311 172 87 87 89 91 80 66 45 359 13 18 26 6 333 307 122 149 151 126 114 121 125 138 133 146 146 148 158 150 147 139 132 122 110 93 91 89 73 71 71 67 67 79 79 64 64 65 62 57 53 46 41 40 39 34 31 28 26 23 21 21 21 20
206 209 215 213 211 208 201 199 184 185 163 143 104 44 27 10 346 10 23 77 124 167 90 105 82 60 60 82 68 43 6 42 31 54 59 44 76 95 96 98 130 128 121 132 131 144 151 146 165 163 152 153 142 130 123 126 130 113 87 93 88 76 75 76 76 76 105 103 85 77 71 63 56 47 40 37 40 36 30 28 25 23 21 20 19
208 202 206 214 206 205 198 199 185 179 175 152 122 120 112 44 36 59 63 77 109 101 94 89 67 59 71 59 48 46 25 56 65 63 65 52 90 108 129 129 127 127 139 137 132 148 153 153 160 138 152 151 139 142 152 140 128 125 120 97 85 89 84 73 75 105 141 135 114 103 90 81 70 64 52 40 38 42 36 29 26 24 21 20 19
203 206 206 201 207 202 199 197 185 173 163 148 118 88 93 100 94 75 81 106 102 108 109 92 84 80 63 62 66 45 50 53 63 59 54 75 95 119 130 140 138 146 131 122 130 141 150 145 145 143 164 147 156 166 153 160 158 139 125 117 112 89 96 96 82 80 55 72 102 136 142 119 103 83 69 57 41 34 43 33 28 25 23 20 19
203 208 203 203 206 213 197 190 183 171 163 156 123 119 112 106 111 108 118 115 112 97 94 98 97 86 72 79 73 64 57 55 57 57 70 75 83 94 109 113 118 125 140 140 131 142 148 150 155 159 162 164 175 164 167 165 173 182 152 155 140 99 61 30 67 55 87 126 109 97 65 36 58 76 93 77 62 42 27 42 29 26 22 20 19
208 209 205 201 199 212 196 194 183 168 163 172 154 136 120 120 128 132 122 120 111 112 109 98 93 91 91 84 70 53 40 30 19 31 29 78 96 105 102 113 117 139 131 135 150 153 154 163 160 161 170 161 172 160 134 191 182 187 187 258 134 119 96 80 31 37 57 38 50 106 157 171 158 152 107 64 50 59 34 28 31 26 21 19 19
209 211 201 204 196 206 193 193 182 177 178 169 163 163 138 135 144 137 124 114 117 113 113 108 102 97 91 73 52 53 54 52 42 34 31 10 351 121 114 116 126 133 150 147 165 155 157 163 157 162 165 172 173 161 173 188 204 140 120 271 103 104 128 122 97 52 17 37 63 46 34 7 41 36 39 36 32 27 40 29 25 25 20 19 19
203 208 202 204 202 203 196 191 185 182 180 173 88 40 350 138 156 135 133 125 117 112 110 108 102 96 93 89 81 76 71 63 55 44 38 35 31 27 28 37 76 140 146 169 157 169 159 169 167 166 175 179 165 177 173 176 108 102 159 190 204 139 139 86 108 68 33 31 37 50 41 15 28 39 43 44 36 32 34 30 24 17 17 19 20
202 199 204 201 207 205 198 191 184 188 187 136 124 130 139 307 214 151 138 128 121 125 130 117 118 115 113 113 115 122 110 91 74 64 51 49 52 51 46 42 30 16 359 166 164 150 185 175 156 181 182 167 160 171 170 155 164 192 160 205 185 180 197 218 132 124 81 343 41 49 57 30 27 44 42 45 43 40 34 35 16 19 20 21 21
197 196 199 205 202 203 202 194 190 190 185 126 149 148 173 215 271 177 145 136 136 135 125 129 125 117 116 116 110 103 82 82 110 98 78 65 68 68 59 49 41 40 39 20 3 191 208 186 166 188 179 166 161 176 159 163 166 169 178 202 191 204 201 298 43 79 76 334 5 53 68 61 55 56 57 52 52 52 54 29 22 19 21 21 22
191 196 197 200 200 198 201 200 195 190 170 144 153 162 171 200 256 262 147 140 146 135 138 124 110 119 122 126 124 113 108 162 149 114 112 99 86 87 93 83 62 49 39 34 26 2 340 221 198 169 198 156 163 175 151 161 131 164 178 197 163 220 195 32 68 94 100 354 277 62 58 44 37 68 67 70 67 53 62 46 29 25 22 23 19
194 195 197 197 198 196 199 200 196 192 172 152 163 166 173 191 221 260 136 160 135 132 135 128 130 122 125 130 134 132 131 137 104 130 123 132 134 137 125 101 96 101 95 94 58 25 351 339 201 182 118 137 172 134 118 139 178 169 186 166 149 179 224 64 61 66 85 323 3 313 87 61 39 54 62 74 91 88 72 69 48 31 24 12 21
195 197 195 198 197 198 197 200 197 195 157 153 167 169 174 186 201 252 158 164 150 138 137 130 128 124 112 108 110 117 125 120 77 13 130 129 123 115 114 104 88 69 57 41 28 29 126 15 41 87 120 105 102 116 135 157 193 85 17 33 127 43 86 104 160 119 149 111 330 295 64 69 41 71 55 55 66 96 111 94 78 56 37 26 18
199 200 200 201 197 196 199 196 202 198 145 158 165 172 176 184 192 216 172 176 159 152 147 145 149 147 138 137 130 122 112 108 76 358 340 103 131 126 120 111 101 90 74 58 33 36 30 30 30 34 46 40 22 29 30 26 159 134 149 143 124 160 187 194 167 153 180 121 341 312 90 73 50 63 62 54 57 57 72 105 106 82 69 49 26
193 198 203 202 199 198 195 196 198 203 155 165 167 172 178 183 190 203 171 189 162 161 158 150 157 145 155 154 141 126 127 114 98 332 322 307 132 134 125 119 113 108 104 100 81 58 60 64 59 57 52 51 48 37 35 19 360 333 185 179 180 200 198 198 141 177 149 128 122 329 348 78 39 74 88 76 54 58 51 46 111 129 93 83 56
199 201 203 204 204 202 198 195 197 202 184 162 170 172 178 184 202 199 183 186 169 170 159 167 156 155 106 38 343 138 125 122 126 244 274 280 136 131 130 131 125 118 119 122 117 98 103 92 84 81 80 83 87 86 60 20 5 329 272 231 131 216 221 290 128 155 123 147 115 341 275 68 113 35 110 122 110 68 55 50 32 144 169 145 114
212 203 202 206 205 206 204 202 189 199 195 161 173 173 180 187 205 208 196 181 178 178 170 168 167 153 142 165 29 10 98 117 145 224 271 295 147 136 134 136 123 118 112 130 127 129 144 146 143 138 129 152 160 143 96 47 315 286 326 343 164 262 289 50 76 148 188 148 110 192 273 106 230 81 317 216 113 82 62 52 46 34 24 11 24